Date_Time,Julian_Date,Latitude,Longitude,Instrument_Depth,U,V,Speed,Direction
(yyyy-mm-dd hh:mn:ss UTC),(JD),(+ deg. North),(+ deg. East),(m),(cm/s),(cm/s),(cm/s),(deg True)
1993-01-11 19:30:00 UTC,2448999.312500,27.8442,-92.0078,0014,-7.32,4.40,8.5406,301.0098
1993-01-11 20:00:00 UTC,2448999.333333,27.8442,-92.0078,0014,-6.42,4.84,8.0400,307.0124
1993-01-11 20:30:00 UTC,2448999.354167,27.8442,-92.0078,0014,-5.49,4.78,7.2793,311.0452
1993-01-11 21:00:00 UTC,2448999.375000,27.8442,-92.0078,0014,-4.08,4.08,5.7700,315.0000
1993-01-11 21:30:00 UTC,2448999.395833,27.8442,-92.0078,0014,-2.63,3.36,4.2669,321.9484
1993-01-11 22:00:00 UTC,2448999.416667,27.8442,-92.0078,0014,-1.68,2.50,3.0120,326.0989
1993-01-11 22:30:00 UTC,2448999.437500,27.8442,-92.0078,0014,-0.36,0.93,0.9972,338.8387
1993-01-11 23:00:00 UTC,2448999.458333,27.8442,-92.0078,0014,0.00,0.00,0.0000,0.0000
1993-01-11 23:30:00 UTC,2448999.479167,27.8442,-92.0078,0014,0.43,-0.61,0.7463,144.8193
1993-01-12 00:00:00 UTC,2448999.500000,27.8442,-92.0078,0014,1.36,-1.80,2.2560,142.9269
1993-01-12 00:30:00 UTC,2448999.520833,27.8442,-92.0078,0014,1.71,-3.36,3.7701,153.0271
1993-01-12 01:00:00 UTC,2448999.541667,27.8442,-92.0078,0014,2.02,-4.32,4.7689,154.9396
1993-01-12 01:30:00 UTC,2448999.562500,27.8442,-92.0078,0014,2.07,-5.39,5.7738,158.9910
1993-01-12 02:00:00 UTC,2448999.583333,27.8442,-92.0078,0014,2.16,-5.63,6.0301,159.0102
1993-01-12 02:30:00 UTC,2448999.604167,27.8442,-92.0078,0014,2.43,-6.33,6.7804,158.9989
1993-01-12 03:00:00 UTC,2448999.625000,27.8442,-92.0078,0014,1.25,-6.41,6.5307,168.9653
1993-01-12 03:30:00 UTC,2448999.645833,27.8442,-92.0078,0014,1.12,-7.96,8.0384,171.9908
1993-01-12 04:00:00 UTC,2448999.666667,27.8442,-92.0078,0014,0.15,-8.79,8.7913,179.0223
1993-01-12 04:30:00 UTC,2448999.687500,27.8442,-92.0078,0014,-1.22,-8.70,8.7851,187.9825
1993-01-12 05:00:00 UTC,2448999.708333,27.8442,-92.0078,0014,-2.50,-8.17,8.5439,197.0140
1993-01-12 05:30:00 UTC,2448999.729167,27.8442,-92.0078,0014,-3.61,-7.74,8.5405,205.0047
1993-01-12 06:00:00 UTC,2448999.750000,27.8442,-92.0078,0014,-3.29,-7.06,7.7889,204.9858
1993-01-12 06:30:00 UTC,2448999.770833,27.8442,-92.0078,0014,-3.54,-6.65,7.5335,208.0278
1993-01-12 07:00:00 UTC,2448999.791667,27.8442,-92.0078,0014,-3.90,-6.75,7.7957,210.0184
1993-01-12 07:30:00 UTC,2448999.812500,27.8442,-92.0078,0014,-4.27,-7.40,8.5436,209.9861
1993-01-12 08:00:00 UTC,2448999.833333,27.8442,-92.0078,0014,-4.27,-7.11,8.2937,210.9875
1993-01-12 08:30:00 UTC,2448999.854167,27.8442,-92.0078,0014,-3.04,-7.17,7.7878,202.9764
1993-01-12 09:00:00 UTC,2448999.875000,27.8442,-92.0078,0014,-2.64,-8.12,8.5384,198.0106
1993-01-12 09:30:00 UTC,2448999.895833,27.8442,-92.0078,0014,-2.72,-8.88,9.2872,197.0302
1993-01-12 10:00:00 UTC,2448999.916667,27.8442,-92.0078,0014,-2.87,-9.37,9.7997,197.0297
1993-01-12 10:30:00 UTC,2448999.937500,27.8442,-92.0078,0014,-3.01,-9.85,10.2996,196.9923
1993-01-12 11:00:00 UTC,2448999.958333,27.8442,-92.0078,0014,-3.08,-10.09,10.5496,196.9750
1993-01-12 11:30:00 UTC,2448999.979167,27.8442,-92.0078,0014,-3.23,-10.57,11.0525,196.9922
1993-01-12 12:00:00 UTC,2449000.000000,27.8442,-92.0078,0014,-2.54,-11.01,11.2992,192.9908
1993-01-12 12:30:00 UTC,2449000.020833,27.8442,-92.0078,0014,-2.60,-11.26,11.5563,193.0021
1993-01-12 13:00:00 UTC,2449000.041667,27.8442,-92.0078,0014,-1.68,-11.93,12.0477,188.0158
1993-01-12 13:30:00 UTC,2449000.062500,27.8442,-92.0078,0014,-1.78,-12.69,12.8142,187.9847
1993-01-12 14:00:00 UTC,2449000.083333,27.8442,-92.0078,0014,-1.59,-12.96,13.0572,186.9944
1993-01-12 14:30:00 UTC,2449000.104167,27.8442,-92.0078,0014,-0.72,-13.79,13.8088,182.9888
1993-01-12 15:00:00 UTC,2449000.125000,27.8442,-92.0078,0014,-1.42,-13.49,13.5645,186.0090
1993-01-12 15:30:00 UTC,2449000.145833,27.8442,-92.0078,0014,-0.72,-13.79,13.8088,182.9888
1993-01-12 16:00:00 UTC,2449000.166667,27.8442,-92.0078,0014,-0.71,-13.54,13.5586,183.0017
1993-01-12 16:30:00 UTC,2449000.187500,27.8442,-92.0078,0014,-0.72,-13.79,13.8088,182.9888
1993-01-12 17:00:00 UTC,2449000.208333,27.8442,-92.0078,0014,-1.59,-12.96,13.0572,186.9944
1993-01-12 17:30:00 UTC,2449000.229167,27.8442,-92.0078,0014,-1.53,-12.47,12.5635,186.9949
1993-01-12 18:00:00 UTC,2449000.250000,27.8442,-92.0078,0014,-2.54,-11.01,11.2992,192.9908
1993-01-12 18:30:00 UTC,2449000.270833,27.8442,-92.0078,0014,-2.67,-10.72,11.0475,193.9859
1993-01-12 19:00:00 UTC,2449000.291667,27.8442,-92.0078,0014,-2.94,-9.61,10.0497,197.0105
1993-01-12 19:30:00 UTC,2449000.312500,27.8442,-92.0078,0014,-2.75,-7.56,8.0446,199.9892
1993-01-12 20:00:00 UTC,2449000.333333,27.8442,-92.0078,0014,-2.87,-6.14,6.7776,205.0526
1993-01-12 20:30:00 UTC,2449000.354167,27.8442,-92.0078,0014,-3.11,-5.17,6.0333,211.0289
1993-01-12 21:00:00 UTC,2449000.375000,27.8442,-92.0078,0014,-3.11,-5.17,6.0333,211.0289
1993-01-12 21:30:00 UTC,2449000.395833,27.8442,-92.0078,0014,-2.85,-4.74,5.5308,211.0171
1993-01-12 22:00:00 UTC,2449000.416667,27.8442,-92.0078,0014,-2.80,-4.48,5.2830,212.0054
1993-01-12 22:30:00 UTC,2449000.437500,27.8442,-92.0078,0014,-2.72,-4.53,5.2839,210.9824
1993-01-12 23:00:00 UTC,2449000.458333,27.8442,-92.0078,0014,-2.25,-5.05,5.5286,204.0151
1993-01-12 23:30:00 UTC,2449000.479167,27.8442,-92.0078,0014,-1.78,-5.49,5.7714,197.9641
1993-01-13 00:00:00 UTC,2449000.500000,27.8442,-92.0078,0014,-1.15,-5.92,6.0307,190.9932
1993-01-13 00:30:00 UTC,2449000.520833,27.8442,-92.0078,0014,-0.63,-6.00,6.0330,185.9941
1993-01-13 01:00:00 UTC,2449000.541667,27.8442,-92.0078,0014,-0.95,-7.73,7.7882,187.0064
1993-01-13 01:30:00 UTC,2449000.562500,27.8442,-92.0078,0014,-0.49,-9.28,9.2929,183.0225
1993-01-13 02:00:00 UTC,2449000.583333,27.8442,-92.0078,0014,0.00,-11.05,11.0500,180.0000
1993-01-13 02:30:00 UTC,2449000.604167,27.8442,-92.0078,0014,0.74,-10.52,10.5460,175.9763
1993-01-13 03:00:00 UTC,2449000.625000,27.8442,-92.0078,0014,0.64,-12.29,12.3067,177.0190
1993-01-13 03:30:00 UTC,2449000.645833,27.8442,-92.0078,0014,0.00,-13.56,13.5600,180.0000
1993-01-13 04:00:00 UTC,2449000.666667,27.8442,-92.0078,0014,0.82,-11.78,11.8085,176.0181
1993-01-13 04:30:00 UTC,2449000.687500,27.8442,-92.0078,0014,0.66,-12.54,12.5574,176.9872
1993-01-13 05:00:00 UTC,2449000.708333,27.8442,-92.0078,0014,0.19,-10.80,10.8017,178.9921
1993-01-13 05:30:00 UTC,2449000.729167,27.8442,-92.0078,0014,0.46,-8.78,8.7920,177.0009
1993-01-13 06:00:00 UTC,2449000.750000,27.8442,-92.0078,0014,0.15,-8.79,8.7913,179.0223
1993-01-13 06:30:00 UTC,2449000.770833,27.8442,-92.0078,0014,0.51,-7.26,7.2779,175.9817
1993-01-13 07:00:00 UTC,2449000.791667,27.8442,-92.0078,0014,0.47,-6.76,6.7763,176.0228
1993-01-13 07:30:00 UTC,2449000.812500,27.8442,-92.0078,0014,1.24,-5.39,5.5308,167.0442
1993-01-13 08:00:00 UTC,2449000.833333,27.8442,-92.0078,0014,1.15,-5.92,6.0307,169.0068
1993-01-13 08:30:00 UTC,2449000.854167,27.8442,-92.0078,0014,0.00,-5.77,5.7700,180.0000
1993-01-13 09:00:00 UTC,2449000.875000,27.8442,-92.0078,0014,-0.32,-4.51,4.5213,184.0585
1993-01-13 09:30:00 UTC,2449000.895833,27.8442,-92.0078,0014,-0.58,-5.50,5.5305,186.0199
1993-01-13 10:00:00 UTC,2449000.916667,27.8442,-92.0078,0014,-0.33,-6.27,6.2787,183.0128
1993-01-13 10:30:00 UTC,2449000.937500,27.8442,-92.0078,0014,-0.66,-4.72,4.7659,187.9601
1993-01-13 11:00:00 UTC,2449000.958333,27.8442,-92.0078,0014,-0.09,-5.03,5.0308,181.0251
1993-01-13 11:30:00 UTC,2449000.979167,27.8442,-92.0078,0014,0.50,-4.74,4.7663,173.9784
1993-01-13 12:00:00 UTC,2449001.000000,27.8442,-92.0078,0014,-0.77,-5.48,5.5338,187.9983
1993-01-13 12:30:00 UTC,2449001.020833,27.8442,-92.0078,0014,0.80,-6.48,6.5292,172.9621
1993-01-13 13:00:00 UTC,2449001.041667,27.8442,-92.0078,0014,0.71,-6.74,6.7773,173.9866
1993-01-13 13:30:00 UTC,2449001.062500,27.8442,-92.0078,0014,0.56,-8.02,8.0395,176.0058
1993-01-13 14:00:00 UTC,2449001.083333,27.8442,-92.0078,0014,2.09,-9.05,9.2882,166.9961
1993-01-13 14:30:00 UTC,2449001.104167,27.8442,-92.0078,0014,1.72,-8.87,9.0352,169.0258
1993-01-13 15:00:00 UTC,2449001.125000,27.8442,-92.0078,0014,2.37,-10.28,10.5497,167.0176
1993-01-13 15:30:00 UTC,2449001.145833,27.8442,-92.0078,0014,3.16,-10.33,10.8025,162.9909
1993-01-13 16:00:00 UTC,2449001.166667,27.8442,-92.0078,0014,1.58,-8.14,8.2919,169.0153
1993-01-13 16:30:00 UTC,2449001.187500,27.8442,-92.0078,0014,1.70,-9.65,9.7986,170.0089
1993-01-13 17:00:00 UTC,2449001.208333,27.8442,-92.0078,0014,2.54,-11.01,11.2992,167.0092
1993-01-13 17:30:00 UTC,2449001.229167,27.8442,-92.0078,0014,-0.15,-8.79,8.7913,180.9777
1993-01-13 18:00:00 UTC,2449001.250000,27.8442,-92.0078,0014,-1.26,-8.95,9.0383,188.0136
1993-01-13 18:30:00 UTC,2449001.270833,27.8442,-92.0078,0014,-2.58,-7.08,7.5354,200.0221
1993-01-13 19:00:00 UTC,2449001.291667,27.8442,-92.0078,0014,-4.72,-8.87,10.0477,208.0188
1993-01-13 19:30:00 UTC,2449001.312500,27.8442,-92.0078,0014,-3.33,-5.33,6.2847,211.9957
1993-01-13 20:00:00 UTC,2449001.333333,27.8442,-92.0078,0014,-4.38,-5.81,7.2760,217.0117
1993-01-13 20:30:00 UTC,2449001.354167,27.8442,-92.0078,0014,-4.35,-3.79,5.7695,228.9355
1993-01-13 21:00:00 UTC,2449001.375000,27.8442,-92.0078,0014,-3.37,-3.37,4.7659,225.0000
1993-01-13 21:30:00 UTC,2449001.395833,27.8442,-92.0078,0014,-2.58,-2.01,3.2706,232.0789
1993-01-13 22:00:00 UTC,2449001.416667,27.8442,-92.0078,0014,-3.55,-1.89,4.0218,241.9694
1993-01-13 22:30:00 UTC,2449001.437500,27.8442,-92.0078,0014,-4.01,-0.28,4.0198,266.0058
1993-01-13 23:00:00 UTC,2449001.458333,27.8442,-92.0078,0014,-3.05,-1.17,3.2667,249.0129
1993-01-13 23:30:00 UTC,2449001.479167,27.8442,-92.0078,0014,-5.25,-0.55,5.2787,264.0194
1993-01-14 00:00:00 UTC,2449001.500000,27.8442,-92.0078,0014,-4.26,-0.22,4.2657,267.0437
1993-01-14 00:30:00 UTC,2449001.520833,27.8442,-92.0078,0014,-2.79,-1.13,3.0101,247.9512
1993-01-14 01:00:00 UTC,2449001.541667,27.8442,-92.0078,0014,-0.39,-2.23,2.2638,189.9200
1993-01-14 01:30:00 UTC,2449001.562500,27.8442,-92.0078,0014,-0.14,0.99,0.9998,351.9509
1993-01-14 02:00:00 UTC,2449001.583333,27.8442,-92.0078,0014,-1.47,0.37,1.5158,284.1279
1993-01-14 02:30:00 UTC,2449001.604167,27.8442,-92.0078,0014,1.44,1.01,1.7589,54.9546
1993-01-14 03:00:00 UTC,2449001.625000,27.8442,-92.0078,0014,0.92,-0.39,0.9992,112.9727
1993-01-14 03:30:00 UTC,2449001.645833,27.8442,-92.0078,0014,-0.43,-2.22,2.2613,190.9621
1993-01-14 04:00:00 UTC,2449001.666667,27.8442,-92.0078,0014,2.19,-0.55,2.2580,104.0978
1993-01-14 04:30:00 UTC,2449001.687500,27.8442,-92.0078,0014,1.41,-1.06,1.7640,126.9349
1993-01-14 05:00:00 UTC,2449001.708333,27.8442,-92.0078,0014,3.75,-1.44,4.0170,111.0068
1993-01-14 05:30:00 UTC,2449001.729167,27.8442,-92.0078,0014,3.14,-0.90,3.2664,105.9936
1993-01-14 06:00:00 UTC,2449001.750000,27.8442,-92.0078,0014,4.40,-1.02,4.5167,103.0517
1993-01-14 06:30:00 UTC,2449001.770833,27.8442,-92.0078,0014,3.98,-0.56,4.0192,98.0091
1993-01-14 07:00:00 UTC,2449001.791667,27.8442,-92.0078,0014,3.52,-1.35,3.7700,110.9829
1993-01-14 07:30:00 UTC,2449001.812500,27.8442,-92.0078,0014,4.65,1.07,4.7715,77.0414
1993-01-14 08:00:00 UTC,2449001.833333,27.8442,-92.0078,0014,3.96,-0.70,4.0214,100.0245
1993-01-14 08:30:00 UTC,2449001.854167,27.8442,-92.0078,0014,2.91,-1.48,3.2647,116.9575
1993-01-14 09:00:00 UTC,2449001.875000,27.8442,-92.0078,0014,3.98,0.56,4.0192,81.9909
1993-01-14 09:30:00 UTC,2449001.895833,27.8442,-92.0078,0014,4.99,0.61,5.0271,83.0305
1993-01-14 10:00:00 UTC,2449001.916667,27.8442,-92.0078,0014,4.95,-2.97,5.7726,120.9638
1993-01-14 10:30:00 UTC,2449001.937500,27.8442,-92.0078,0014,5.39,-2.07,5.7738,111.0090
1993-01-14 11:00:00 UTC,2449001.958333,27.8442,-92.0078,0014,4.73,-3.31,5.7731,124.9839
1993-01-14 11:30:00 UTC,2449001.979167,27.8442,-92.0078,0014,3.70,-2.59,4.5164,124.9920
1993-01-14 12:00:00 UTC,2449002.000000,27.8442,-92.0078,0014,4.62,-4.62,6.5337,135.0000
1993-01-14 12:30:00 UTC,2449002.020833,27.8442,-92.0078,0014,3.91,-3.91,5.5296,135.0000
1993-01-14 13:00:00 UTC,2449002.041667,27.8442,-92.0078,0014,4.64,-5.93,7.5296,141.9582
1993-01-14 13:30:00 UTC,2449002.062500,27.8442,-92.0078,0014,3.71,-4.75,6.0272,142.0083
1993-01-14 14:00:00 UTC,2449002.083333,27.8442,-92.0078,0014,4.17,-5.34,6.7753,142.0137
1993-01-14 14:30:00 UTC,2449002.104167,27.8442,-92.0078,0014,3.78,-6.81,7.7887,150.9668
1993-01-14 15:00:00 UTC,2449002.125000,27.8442,-92.0078,0014,3.15,-8.21,8.7936,159.0093
1993-01-14 15:30:00 UTC,2449002.145833,27.8442,-92.0078,0014,3.24,-8.44,9.0405,158.9989
1993-01-14 16:00:00 UTC,2449002.166667,27.8442,-92.0078,0014,2.55,-10.24,10.5527,166.0164
1993-01-14 16:30:00 UTC,2449002.187500,27.8442,-92.0078,0014,1.92,-10.88,11.0481,169.9920
1993-01-14 17:00:00 UTC,2449002.208333,27.8442,-92.0078,0014,0.68,-9.78,9.8036,176.0226
1993-01-14 17:30:00 UTC,2449002.229167,27.8442,-92.0078,0014,1.22,-9.98,10.0543,173.0305
1993-01-14 18:00:00 UTC,2449002.250000,27.8442,-92.0078,0014,-1.88,-10.64,10.8048,190.0203
1993-01-14 18:30:00 UTC,2449002.270833,27.8442,-92.0078,0014,-1.43,-10.20,10.2998,187.9806
1993-01-14 19:00:00 UTC,2449002.291667,27.8442,-92.0078,0014,-1.40,-9.95,10.0480,188.0092
1993-01-14 19:30:00 UTC,2449002.312500,27.8442,-92.0078,0014,-2.15,-7.49,7.7925,196.0161
1993-01-14 20:00:00 UTC,2449002.333333,27.8442,-92.0078,0014,-2.76,-6.19,6.7774,204.0312
1993-01-14 20:30:00 UTC,2449002.354167,27.8442,-92.0078,0014,-3.54,-6.94,7.7907,207.0255
1993-01-14 21:00:00 UTC,2449002.375000,27.8442,-92.0078,0014,-2.89,-5.00,5.7751,210.0279
1993-01-14 21:30:00 UTC,2449002.395833,27.8442,-92.0078,0014,-2.87,-3.81,4.7700,216.9900
1993-01-14 22:00:00 UTC,2449002.416667,27.8442,-92.0078,0014,-2.96,-1.38,3.2659,245.0043
1993-01-14 22:30:00 UTC,2449002.437500,27.8442,-92.0078,0014,-2.81,-1.08,3.0104,248.9762
1993-01-14 23:00:00 UTC,2449002.458333,27.8442,-92.0078,0014,-2.39,-0.78,2.5141,251.9254
1993-01-14 23:30:00 UTC,2449002.479167,27.8442,-92.0078,0014,-3.25,0.34,3.2677,275.9723
1993-01-15 00:00:00 UTC,2449002.500000,27.8442,-92.0078,0014,-2.46,0.48,2.5064,281.0410
1993-01-15 00:30:00 UTC,2449002.520833,27.8442,-92.0078,0014,-1.64,0.63,1.7568,291.0141
1993-01-15 01:00:00 UTC,2449002.541667,27.8442,-92.0078,0014,0.58,0.47,0.7465,50.9806
1993-01-15 01:30:00 UTC,2449002.562500,27.8442,-92.0078,0014,-0.47,1.44,1.5148,341.9239
1993-01-15 02:00:00 UTC,2449002.583333,27.8442,-92.0078,0014,1.96,-0.45,2.0110,102.9305
1993-01-15 02:30:00 UTC,2449002.604167,27.8442,-92.0078,0014,-0.12,-1.76,1.7641,183.9005
1993-01-15 03:00:00 UTC,2449002.625000,27.8442,-92.0078,0014,1.60,1.60,2.2627,45.0000
1993-01-15 03:30:00 UTC,2449002.645833,27.8442,-92.0078,0014,-0.05,-0.51,0.5124,185.5993
1993-01-15 04:00:00 UTC,2449002.666667,27.8442,-92.0078,0014,-0.75,-0.01,0.7501,269.2361
1993-01-15 04:30:00 UTC,2449002.687500,27.8442,-92.0078,0014,2.13,-1.33,2.5111,121.9812
1993-01-15 05:00:00 UTC,2449002.708333,27.8442,-92.0078,0014,-0.82,1.84,2.0144,335.9798
1993-01-15 05:30:00 UTC,2449002.729167,27.8442,-92.0078,0014,-1.81,2.40,3.0060,322.9776
1993-01-15 06:00:00 UTC,2449002.750000,27.8442,-92.0078,0014,1.67,1.12,2.0108,56.1519
1993-01-15 06:30:00 UTC,2449002.770833,27.8442,-92.0078,0014,1.77,3.33,3.7712,27.9921
1993-01-15 07:00:00 UTC,2449002.791667,27.8442,-92.0078,0014,3.54,1.29,3.7677,69.9779
1993-01-15 07:30:00 UTC,2449002.812500,27.8442,-92.0078,0014,0.12,2.26,2.2632,3.0394
1993-01-15 08:00:00 UTC,2449002.833333,27.8442,-92.0078,0014,-0.07,3.77,3.7706,358.9363
1993-01-15 08:30:00 UTC,2449002.854167,27.8442,-92.0078,0014,0.18,3.52,3.5246,2.9273
1993-01-15 09:00:00 UTC,2449002.875000,27.8442,-92.0078,0014,-0.91,1.79,2.0080,333.0521
1993-01-15 09:30:00 UTC,2449002.895833,27.8442,-92.0078,0014,0.60,5.74,5.7713,5.9674
1993-01-15 10:00:00 UTC,2449002.916667,27.8442,-92.0078,0014,2.24,4.21,4.7688,28.0159
1993-01-15 10:30:00 UTC,2449002.937500,27.8442,-92.0078,0014,1.00,5.68,5.7674,9.9850
1993-01-15 11:00:00 UTC,2449002.958333,27.8442,-92.0078,0014,2.36,5.55,6.0309,23.0364
1993-01-15 11:30:00 UTC,2449002.979167,27.8442,-92.0078,0014,2.74,5.37,6.0286,27.0326
1993-01-15 12:00:00 UTC,2449003.000000,27.8442,-92.0078,0014,2.95,4.38,5.2808,33.9609
1993-01-15 12:30:00 UTC,2449003.020833,27.8442,-92.0078,0014,3.61,2.72,4.5200,53.0033
1993-01-15 13:00:00 UTC,2449003.041667,27.8442,-92.0078,0014,2.54,2.06,3.2704,50.9571
1993-01-15 13:30:00 UTC,2449003.062500,27.8442,-92.0078,0014,3.33,2.25,4.0189,55.9541
1993-01-15 14:00:00 UTC,2449003.083333,27.8442,-92.0078,0014,3.77,2.00,4.2677,62.0539
1993-01-15 14:30:00 UTC,2449003.104167,27.8442,-92.0078,0014,4.01,1.46,4.2675,69.9939
1993-01-15 15:00:00 UTC,2449003.125000,27.8442,-92.0078,0014,3.73,-0.52,3.7661,97.9365
1993-01-15 15:30:00 UTC,2449003.145833,27.8442,-92.0078,0014,3.27,-0.17,3.2744,92.9760
1993-01-15 16:00:00 UTC,2449003.166667,27.8442,-92.0078,0014,3.47,-1.47,3.7685,112.9590
1993-01-15 16:30:00 UTC,2449003.187500,27.8442,-92.0078,0014,3.83,-2.40,4.5198,122.0726
1993-01-15 17:00:00 UTC,2449003.208333,27.8442,-92.0078,0014,0.37,-2.99,3.0128,172.9457
1993-01-15 17:30:00 UTC,2449003.229167,27.8442,-92.0078,0014,-2.54,-2.06,3.2704,230.9571
1993-01-15 18:00:00 UTC,2449003.250000,27.8442,-92.0078,0014,-2.46,-1.25,2.7594,243.0635
1993-01-15 18:30:00 UTC,2449003.270833,27.8442,-92.0078,0014,-5.76,0.40,5.7739,273.9725
1993-01-15 19:00:00 UTC,2449003.291667,27.8442,-92.0078,0014,-6.60,3.08,7.2833,295.0169
1993-01-15 19:30:00 UTC,2449003.312500,27.8442,-92.0078,0014,-5.75,3.59,6.7787,301.9785
1993-01-15 20:00:00 UTC,2449003.333333,27.8442,-92.0078,0014,-4.99,6.62,8.2900,322.9919
1993-01-15 20:30:00 UTC,2449003.354167,27.8442,-92.0078,0014,-4.24,7.98,9.0365,332.0170
1993-01-15 21:00:00 UTC,2449003.375000,27.8442,-92.0078,0014,-2.28,8.49,8.7908,344.9678
1993-01-15 21:30:00 UTC,2449003.395833,27.8442,-92.0078,0014,-1.68,8.63,8.7920,348.9840
1993-01-15 22:00:00 UTC,2449003.416667,27.8442,-92.0078,0014,-2.40,12.33,12.5614,348.9853
1993-01-15 22:30:00 UTC,2449003.437500,27.8442,-92.0078,0014,-3.67,15.91,16.3278,347.0107
1993-01-15 23:00:00 UTC,2449003.458333,27.8442,-92.0078,0014,-1.05,15.03,15.0666,356.0038
1993-01-15 23:30:00 UTC,2449003.479167,27.8442,-92.0078,0014,0.00,12.31,12.3100,0.0000
1993-01-16 00:00:00 UTC,2449003.500000,27.8442,-92.0078,0014,1.50,10.69,10.7947,7.9875
1993-01-16 00:30:00 UTC,2449003.520833,27.8442,-92.0078,0014,2.95,9.07,9.5377,18.0170
1993-01-16 01:00:00 UTC,2449003.541667,27.8442,-92.0078,0014,4.10,8.05,9.0340,26.9905
1993-01-16 01:30:00 UTC,2449003.562500,27.8442,-92.0078,0014,4.87,5.41,7.2791,41.9931
1993-01-16 02:00:00 UTC,2449003.583333,27.8442,-92.0078,0014,5.54,3.46,6.5317,58.0132
1993-01-16 02:30:00 UTC,2449003.604167,27.8442,-92.0078,0014,5.20,1.89,5.5328,70.0257
1993-01-16 03:00:00 UTC,2449003.625000,27.8442,-92.0078,0014,5.23,0.73,5.2807,82.0540
1993-01-16 03:30:00 UTC,2449003.645833,27.8442,-92.0078,0014,5.27,0.28,5.2774,86.9587
1993-01-16 04:00:00 UTC,2449003.666667,27.8442,-92.0078,0014,5.24,-0.64,5.2789,96.9635
1993-01-16 04:30:00 UTC,2449003.687500,27.8442,-92.0078,0014,5.32,-1.52,5.5329,105.9454
1993-01-16 05:00:00 UTC,2449003.708333,27.8442,-92.0078,0014,5.00,-3.37,6.0297,123.9800
1993-01-16 05:30:00 UTC,2449003.729167,27.8442,-92.0078,0014,4.82,-3.63,6.0340,126.9838
1993-01-16 06:00:00 UTC,2449003.750000,27.8442,-92.0078,0014,4.74,-4.12,6.2803,130.9971
1993-01-16 06:30:00 UTC,2449003.770833,27.8442,-92.0078,0014,3.63,-4.17,5.5286,138.9603
1993-01-16 07:00:00 UTC,2449003.791667,27.8442,-92.0078,0014,2.67,-4.27,5.0360,147.9826
1993-01-16 07:30:00 UTC,2449003.812500,27.8442,-92.0078,0014,1.39,-4.56,4.7671,163.0475
1993-01-16 08:00:00 UTC,2449003.833333,27.8442,-92.0078,0014,-0.34,-2.74,2.7610,187.0735
1993-01-16 08:30:00 UTC,2449003.854167,27.8442,-92.0078,0014,-1.47,-0.37,1.5158,255.8721
1993-01-16 09:00:00 UTC,2449003.875000,27.8442,-92.0078,0014,-0.16,-0.49,0.5155,198.0835
1993-01-16 09:30:00 UTC,2449003.895833,27.8442,-92.0078,0014,-1.07,-0.64,1.2468,239.1151
1993-01-16 10:00:00 UTC,2449003.916667,27.8442,-92.0078,0014,-0.91,-0.41,0.9981,245.7461
1993-01-16 10:30:00 UTC,2449003.937500,27.8442,-92.0078,0014,-2.01,-0.00,2.0100,270.0000
1993-01-16 11:00:00 UTC,2449003.958333,27.8442,-92.0078,0014,-2.99,0.37,3.0128,277.0543
1993-01-16 11:30:00 UTC,2449003.979167,27.8442,-92.0078,0014,-3.67,1.64,4.0198,294.0783
1993-01-16 12:00:00 UTC,2449004.000000,27.8442,-92.0078,0014,-3.70,1.57,4.0193,292.9927
1993-01-16 12:30:00 UTC,2449004.020833,27.8442,-92.0078,0014,-3.77,2.00,4.2677,297.9461
1993-01-16 13:00:00 UTC,2449004.041667,27.8442,-92.0078,0014,-2.55,1.60,3.0104,302.1063
1993-01-16 13:30:00 UTC,2449004.062500,27.8442,-92.0078,0014,-1.39,1.78,2.2584,322.0138
1993-01-16 14:00:00 UTC,2449004.083333,27.8442,-92.0078,0014,-2.12,2.81,3.5200,322.9673
1993-01-16 14:30:00 UTC,2449004.104167,27.8442,-92.0078,0014,-1.44,3.75,4.0170,338.9932
1993-01-16 15:00:00 UTC,2449004.125000,27.8442,-92.0078,0014,0.10,5.53,5.5309,1.0360
1993-01-16 15:30:00 UTC,2449004.145833,27.8442,-92.0078,0014,1.22,4.88,5.0302,14.0362
1993-01-16 16:00:00 UTC,2449004.166667,27.8442,-92.0078,0014,1.97,2.92,3.5224,34.0059
1993-01-16 16:30:00 UTC,2449004.187500,27.8442,-92.0078,0014,3.20,3.20,4.5255,45.0000
1993-01-16 17:00:00 UTC,2449004.208333,27.8442,-92.0078,0014,3.22,1.43,3.5233,66.0540
1993-01-16 17:30:00 UTC,2449004.229167,27.8442,-92.0078,0014,3.61,1.10,3.7739,73.0535
1993-01-16 18:00:00 UTC,2449004.250000,27.8442,-92.0078,0014,4.26,0.30,4.2706,85.9717
1993-01-16 18:30:00 UTC,2449004.270833,27.8442,-92.0078,0014,3.52,-0.18,3.5246,92.9273
1993-01-16 19:00:00 UTC,2449004.291667,27.8442,-92.0078,0014,3.75,-0.39,3.7702,95.9374
1993-01-16 19:30:00 UTC,2449004.312500,27.8442,-92.0078,0014,2.73,-0.38,2.7563,97.9243
1993-01-16 20:00:00 UTC,2449004.333333,27.8442,-92.0078,0014,2.69,-0.62,2.7605,102.9791
1993-01-16 20:30:00 UTC,2449004.354167,27.8442,-92.0078,0014,2.51,-0.13,2.5134,92.9649
1993-01-16 21:00:00 UTC,2449004.375000,27.8442,-92.0078,0014,2.76,-0.05,2.7605,91.0378
1993-01-16 21:30:00 UTC,2449004.395833,27.8442,-92.0078,0014,1.94,0.52,2.0085,74.9951
1993-01-16 22:00:00 UTC,2449004.416667,27.8442,-92.0078,0014,1.46,0.98,1.7584,56.1292
1993-01-16 22:30:00 UTC,2449004.437500,27.8442,-92.0078,0014,1.49,1.34,2.0039,48.0340
1993-01-16 23:00:00 UTC,2449004.458333,27.8442,-92.0078,0014,1.60,1.60,2.2627,45.0000
1993-01-16 23:30:00 UTC,2449004.479167,27.8442,-92.0078,0014,1.73,2.77,3.2659,31.9868
1993-01-17 00:00:00 UTC,2449004.500000,27.8442,-92.0078,0014,1.43,3.22,3.5233,23.9460
1993-01-17 00:30:00 UTC,2449004.520833,27.8442,-92.0078,0014,2.00,3.77,4.2677,27.9461
1993-01-17 01:00:00 UTC,2449004.541667,27.8442,-92.0078,0014,2.01,3.48,4.0188,30.0101
1993-01-17 01:30:00 UTC,2449004.562500,27.8442,-92.0078,0014,2.53,3.75,4.5236,34.0062
1993-01-17 02:00:00 UTC,2449004.583333,27.8442,-92.0078,0014,2.89,4.12,5.0325,35.0480
1993-01-17 02:30:00 UTC,2449004.604167,27.8442,-92.0078,0014,3.02,3.02,4.2709,45.0000
1993-01-17 03:00:00 UTC,2449004.625000,27.8442,-92.0078,0014,2.93,2.37,3.7685,51.0315
1993-01-17 03:30:00 UTC,2449004.645833,27.8442,-92.0078,0014,2.80,3.22,4.2671,41.0091
1993-01-17 04:00:00 UTC,2449004.666667,27.8442,-92.0078,0014,3.25,3.14,4.5191,45.9862
1993-01-17 04:30:00 UTC,2449004.687500,27.8442,-92.0078,0014,2.86,3.17,4.2695,42.0570
1993-01-17 05:00:00 UTC,2449004.708333,27.8442,-92.0078,0014,3.31,3.43,4.7667,43.9800
1993-01-17 05:30:00 UTC,2449004.729167,27.8442,-92.0078,0014,3.51,2.84,4.5151,51.0231
1993-01-17 06:00:00 UTC,2449004.750000,27.8442,-92.0078,0014,4.44,0.86,4.5225,79.0379
1993-01-17 06:30:00 UTC,2449004.770833,27.8442,-92.0078,0014,4.54,-1.47,4.7721,107.9414
1993-01-17 07:00:00 UTC,2449004.791667,27.8442,-92.0078,0014,4.55,-3.96,6.0319,131.0340
1993-01-17 07:30:00 UTC,2449004.812500,27.8442,-92.0078,0014,4.38,-2.95,5.2808,123.9609
1993-01-17 08:00:00 UTC,2449004.833333,27.8442,-92.0078,0014,3.48,-2.01,4.0188,120.0101
1993-01-17 08:30:00 UTC,2449004.854167,27.8442,-92.0078,0014,2.05,-0.96,2.2636,115.0933
1993-01-17 09:00:00 UTC,2449004.875000,27.8442,-92.0078,0014,1.60,-0.74,1.7628,114.8205
1993-01-17 09:30:00 UTC,2449004.895833,27.8442,-92.0078,0014,2.77,-1.18,3.0109,113.0736
1993-01-17 10:00:00 UTC,2449004.916667,27.8442,-92.0078,0014,2.22,-1.18,2.5141,117.9920